period_start,C,m1,H,J0,J1,J2,J3,J4,J5,JA,JB,JC,JD,JJ,JK,JN,#
2015-06-15 00:04:57,-0.01,0.01,0.00,23.66,27.50,30.09,4.74,23.21,1011.04,2036.90,3516.00,3316.00,3604.00,349.91,345.02,5.48,0000 0000 0000 0000 000000
2015-06-15 00:09:58,-0.00,0.01,0.00,23.68,27.52,30.09,4.72,23.12,1010.94,2036.83,3515.99,3315.99,3604.00,349.74,344.58,5.51,0000 0000 0000 0000 000000
2015-06-15 00:14:59,0.00,0.01,0.00,23.70,27.52,30.09,4.75,23.24,1010.86,2036.88,3515.99,3315.99,3604.00,349.72,344.75,5.53,0000 0000 0000 0000 000000
2015-06-15 00:20:01,-0.04,0.01,0.00,23.65,27.52,30.15,4.71,23.21,1010.82,2036.65,3515.99,3315.98,3604.00,349.97,344.97,5.56,0000 0000 0000 0000 000000
2015-06-15 00:25:02,0.02,0.01,0.00,23.57,27.52,30.22,4.67,23.18,1010.79,2036.57,3515.98,3315.97,3603.99,349.78,344.80,5.59,0000 0000 0000 0000 000000
2015-06-15 00:30:03,-0.02,0.01,0.00,23.49,27.52,30.31,4.64,23.13,1010.80,2036.67,3515.99,3315.98,3603.99,349.57,344.79,5.62,0000 0000 0000 0000 000000
2015-06-15 00:35:04,0.02,0.01,0.00,23.41,27.52,30.37,4.77,23.18,1010.79,2036.61,3515.98,3315.96,3603.99,350.34,345.48,5.65,0000 0000 0000 0000 000000
2015-06-15 00:40:06,0.00,0.01,0.00,23.44,27.52,30.33,4.75,23.15,1010.77,2036.75,3515.97,3315.96,3603.99,350.19,345.24,5.68,0000 0000 0000 0000 000000
2015-06-15 00:45:07,0.02,0.01,0.00,23.58,27.52,30.27,4.80,23.25,1010.78,2036.78,3515.98,3315.96,3603.98,350.19,345.06,5.71,0000 0000 0000 0000 000000
2015-06-15 00:50:08,0.01,0.01,0.00,23.62,27.54,30.27,4.75,23.32,1010.78,2036.89,3515.96,3315.94,3603.99,350.10,344.77,5.74,0000 0000 0000 0000 000000
2015-06-15 00:55:09,0.01,0.01,0.00,23.53,27.55,30.19,4.79,23.29,1010.77,2036.92,3515.87,3315.90,3603.97,350.46,345.29,5.77,0000 0000 0000 0000 000000
2015-06-15 01:00:10,0.02,0.01,0.00,23.59,27.55,30.10,4.79,23.32,1010.77,2036.81,3515.43,3315.52,3603.94,349.87,345.00,5.80,0000 0000 0000 0000 000000
2015-06-15 01:05:11,-0.02,0.01,0.00,23.60,27.55,30.10,4.74,23.31,1010.78,2036.56,3515.07,3315.12,3603.74,350.33,345.32,5.83,0000 0000 0000 0000 000000
2015-06-15 01:10:13,0.00,0.01,0.00,23.62,27.55,30.13,4.70,23.30,1010.76,2036.45,3515.02,3315.05,3603.56,349.78,344.84,5.86,0000 0000 0000 0000 000000
2015-06-15 01:15:14,-0.02,0.01,0.00,23.62,27.55,30.09,4.75,23.31,1010.76,2036.33,3515.00,3315.02,3603.23,350.12,345.16,5.89,0000 0000 0000 0000 000000
2015-06-15 01:20:15,-0.00,0.01,0.00,23.62,27.53,30.12,4.74,23.34,1010.76,2036.26,3515.00,3315.02,3603.12,349.63,344.58,5.92,0000 0000 0000 0000 000000
2015-06-15 01:25:16,0.04,0.01,0.00,23.62,27.52,30.12,4.68,23.25,1010.76,2036.37,3514.99,3315.00,3603.11,349.83,344.83,5.94,0000 0000 0000 0000 000000
2015-06-15 01:30:17,0.00,0.01,0.00,23.64,27.52,30.11,4.73,23.31,1010.76,2036.46,3514.99,3315.00,3603.11,350.01,344.98,5.97,0000 0000 0000 0000 000000
2015-06-15 01:35:18,0.03,0.01,0.00,23.65,27.52,30.09,4.63,23.27,1010.76,2036.73,3514.99,3315.01,3603.13,349.46,344.41,6.00,0000 0000 0000 0000 000000
2015-06-15 01:40:20,-0.01,0.01,0.00,23.68,27.52,30.03,4.68,23.35,1010.75,2036.60,3515.00,3315.01,3603.08,349.95,344.83,6.03,0000 0000 0000 0000 000000
2015-06-15 01:45:21,-0.02,0.01,0.00,23.69,27.50,30.03,4.65,23.29,1010.75,2036.54,3515.00,3315.02,3603.06,350.04,344.97,6.06,0000 0000 0000 0000 000000
2015-06-15 01:50:22,0.01,0.01,0.00,23.70,27.50,30.04,4.70,23.34,1010.75,2036.60,3515.00,3315.00,3603.03,349.88,344.99,6.09,0000 0000 0000 0000 000000
2015-06-15 01:55:23,0.03,0.01,0.00,23.70,27.50,30.03,4.62,23.27,1010.76,2036.76,3514.99,3315.00,3603.01,349.58,344.54,6.12,0000 0000 0000 0000 000000
2015-06-15 02:00:25,-0.01,0.01,0.00,23.72,27.50,29.96,4.78,23.40,1010.76,2036.67,3514.98,3315.00,3603.00,350.47,345.36,6.15,0000 0000 0000 0000 000000
2015-06-15 02:05:26,0.06,0.01,0.00,23.72,27.50,29.95,4.87,23.37,1010.76,2036.63,3514.45,3314.48,3602.50,350.49,345.26,6.18,0000 0000 0000 0000 000000
2015-06-15 02:10:27,-0.00,0.02,0.00,23.73,27.50,29.96,4.75,23.32,1010.76,2036.57,3514.01,3314.00,3602.02,350.08,345.02,6.21,0000 0000 0000 0000 000000
2015-06-15 02:15:28,0.04,0.02,0.00,23.76,27.49,29.95,4.72,23.25,1010.76,2036.78,3514.09,3314.03,3602.12,349.92,344.82,6.24,0000 0000 0000 0000 000000
2015-06-15 02:20:29,-0.01,0.02,0.00,23.78,27.48,29.93,4.75,23.39,1010.76,2036.89,3514.14,3314.06,3602.26,349.87,344.48,6.27,0000 0000 0000 0000 000000
2015-06-15 02:25:30,0.01,0.02,0.00,23.79,27.47,29.91,4.77,23.38,1010.76,2036.93,3514.02,3314.04,3602.40,350.35,345.07,6.30,0000 0000 0000 0000 000000
2015-06-15 02:30:32,0.00,0.02,0.00,23.80,27.47,29.93,4.79,23.39,1010.76,2036.94,3514.02,3314.02,3602.26,350.13,344.69,6.33,0000 0000 0000 0000 000000
2015-06-15 02:35:34,0.00,0.02,0.00,23.82,27.47,29.91,4.68,23.22,1010.76,2036.96,3514.07,3314.03,3602.22,349.79,344.50,6.36,0000 0000 0000 0000 000000
2015-06-15 02:40:35,0.00,0.02,0.00,23.82,27.47,29.90,4.66,23.20,1010.76,2036.96,3514.02,3314.02,3602.14,349.97,344.70,6.38,0000 0000 0000 0000 000000
2015-06-15 02:45:36,-0.00,0.02,0.00,23.82,27.47,29.90,4.72,23.29,1010.76,2036.94,3514.02,3314.04,3602.14,350.20,344.89,6.41,0000 0000 0000 0000 000000
2015-06-15 02:50:37,-0.00,0.02,0.00,23.85,27.47,29.89,4.65,23.19,1010.76,2036.92,3514.03,3314.01,3602.04,349.58,344.14,6.44,0000 0000 0000 0000 000000
2015-06-15 02:55:38,-0.00,0.02,0.00,23.87,27.47,29.88,4.83,23.31,1010.76,2036.90,3514.01,3314.02,3602.03,349.85,344.44,6.47,0000 0000 0000 0000 000000
2015-06-15 03:00:40,0.00,0.02,0.00,23.89,27.47,29.88,4.71,23.14,1010.77,2036.92,3514.01,3314.01,3602.03,349.95,344.60,6.50,0000 0000 0000 0000 000000
2015-06-15 03:05:41,0.00,0.02,0.00,23.90,27.47,29.88,4.78,23.20,1010.78,2036.96,3514.01,3314.02,3602.07,350.64,345.23,6.53,0000 0000 0000 0000 000000
2015-06-15 03:10:42,-0.00,0.02,0.00,23.91,27.47,29.88,4.77,23.23,1010.78,2036.96,3514.00,3314.01,3602.04,350.02,344.57,6.56,0000 0000 0000 0000 000000
2015-06-15 03:15:43,-0.00,0.02,0.00,23.92,27.47,29.88,4.67,23.13,1010.83,2036.96,3514.00,3314.03,3602.12,349.87,344.55,6.59,0000 0000 0000 0000 000000
2015-06-15 03:20:44,0.01,0.02,0.00,23.93,27.47,29.88,4.79,23.32,1010.82,2036.97,3513.98,3314.00,3602.05,350.01,344.61,6.62,0000 0000 0000 0000 000000
2015-06-15 03:25:45,0.00,0.02,0.00,23.93,27.47,29.88,4.75,23.14,1010.90,2036.98,3513.98,3314.00,3602.05,349.94,344.62,6.65,0000 0000 0000 0000 000000
2015-06-15 03:30:47,-0.00,0.02,0.00,23.94,27.47,29.89,4.75,23.20,1011.03,2036.99,3513.99,3314.00,3602.16,350.03,344.71,6.68,0000 0000 0000 0000 000000
2015-06-15 03:35:48,0.00,0.02,0.00,23.95,27.47,29.89,4.75,23.09,1011.06,2036.98,3513.98,3314.00,3602.14,349.67,344.20,6.71,0000 0000 0000 0000 000000
2015-06-15 03:40:49,0.00,0.02,0.00,23.96,27.48,29.89,4.67,23.07,1010.99,2036.99,3513.99,3314.01,3602.15,349.45,344.26,6.74,0000 0000 0000 0000 000000
2015-06-15 03:45:50,-0.00,0.02,0.00,23.97,27.49,29.89,4.67,23.14,1011.02,2036.99,3513.99,3314.00,3602.20,349.93,344.74,6.76,0000 0000 0000 0000 000000
2015-06-15 03:50:52,0.00,0.02,0.00,23.97,27.49,29.89,4.70,23.13,1010.99,2036.99,3513.99,3314.01,3602.13,350.10,344.53,6.79,0000 0000 0000 0000 000000
2015-06-15 03:55:53,0.00,0.02,0.00,24.00,27.50,29.88,4.77,23.12,1011.05,2036.99,3513.93,3314.00,3602.07,350.37,345.01,6.82,0000 0000 0000 0000 000000
2015-06-15 04:00:54,0.00,0.02,0.00,24.00,27.50,29.90,4.75,23.14,1011.15,2036.99,3513.92,3314.00,3602.02,350.09,344.87,6.85,0000 0000 0000 0000 000000
2015-06-15 04:05:56,0.00,0.02,0.00,24.00,27.50,29.90,4.74,23.13,1011.06,2036.99,3513.90,3314.00,3602.01,350.48,345.03,6.88,0000 0000 0000 0000 000000
2015-06-15 04:10:57,0.00,0.02,0.00,24.00,27.50,29.91,4.74,23.11,1011.08,2036.99,3513.60,3313.99,3602.00,350.42,344.89,6.91,0000 0000 0000 0000 000000
2015-06-15 04:15:58,0.01,0.02,0.00,24.00,27.50,29.91,4.84,23.25,1011.14,2036.99,3513.27,3313.99,3602.00,350.50,345.32,6.94,0000 0000 0000 0000 000000
2015-06-15 04:21:00,0.01,0.02,0.00,24.00,27.50,29.91,4.72,23.19,1011.22,2036.99,3513.07,3313.93,3602.00,350.02,344.55,6.97,0000 0000 0000 0000 000000
2015-06-15 04:26:01,0.00,0.02,0.00,24.00,27.50,29.91,4.67,23.10,1011.24,2036.99,3513.01,3313.93,3601.99,349.88,344.54,7.00,0000 0000 0000 0000 000000
2015-06-15 04:31:03,0.00,0.02,0.00,24.02,27.50,29.91,4.73,23.13,1011.19,2036.99,3513.00,3313.93,3601.99,350.22,345.09,7.03,0000 0000 0000 0000 000000
2015-06-15 04:36:04,0.00,0.02,0.00,24.02,27.51,29.91,4.70,23.18,1011.17,2036.99,3513.00,3313.92,3601.99,349.72,344.43,7.06,0000 0000 0000 0000 000000
2015-06-15 04:41:05,0.01,0.02,0.00,24.02,27.52,29.91,4.62,23.23,1011.19,2036.99,3513.00,3313.79,3601.98,349.34,344.18,7.09,0000 0000 0000 0000 000000
2015-06-15 04:46:07,0.00,0.02,0.00,24.04,27.52,29.91,4.64,23.26,1011.21,2036.99,3513.00,3313.62,3601.97,349.27,343.64,7.12,0000 0000 0000 0000 000000
2015-06-15 04:51:08,0.00,0.02,0.00,24.04,27.52,29.92,4.65,23.18,1011.24,2036.99,3512.99,3313.51,3601.95,349.31,343.94,7.15,0000 0000 0000 0000 000000
2015-06-15 04:56:09,0.00,0.02,0.00,24.04,27.52,29.92,4.82,23.18,1011.23,2036.99,3512.98,3313.44,3601.97,350.59,345.23,7.17,0000 0000 0000 0000 000000
2015-06-15 05:01:10,-0.00,0.02,0.00,24.02,27.52,29.92,4.71,23.13,1011.23,2036.99,3512.98,3313.39,3601.96,349.69,344.39,7.20,0000 0000 0000 0000 000000
2015-06-15 05:06:11,0.01,0.02,0.00,24.04,27.52,29.93,4.78,23.19,1011.19,2036.99,3512.98,3313.16,3601.84,350.11,344.74,7.23,0000 0000 0000 0000 000000
2015-06-15 05:11:13,0.01,0.02,0.00,24.05,27.52,29.92,4.78,23.27,1011.21,2036.99,3512.95,3313.04,3601.58,350.45,344.90,7.26,0000 0000 0000 0000 000000
2015-06-15 05:16:14,-0.00,0.02,0.00,24.06,27.52,29.92,4.68,23.13,1011.24,2036.99,3512.96,3313.04,3601.57,349.85,344.47,7.29,0000 0000 0000 0000 000000
2015-06-15 05:21:15,0.02,0.02,0.00,24.08,27.52,29.93,4.69,23.21,1011.24,2036.99,3512.70,3313.04,3601.26,349.64,344.13,7.32,0000 0000 0000 0000 000000
2015-06-15 05:26:16,-0.01,0.02,0.00,24.09,27.52,29.93,4.72,23.15,1011.24,2036.99,3512.63,3313.02,3601.16,350.55,345.12,7.35,0000 0000 0000 0000 000000
2015-06-15 05:31:18,0.01,0.02,0.00,24.06,27.52,29.94,4.66,23.05,1011.24,2036.99,3512.45,3313.02,3601.29,349.71,344.45,7.38,0000 0000 0000 0000 000000
2015-06-15 05:36:19,0.01,0.02,0.00,23.95,27.52,29.99,4.77,23.06,1011.24,2036.99,3512.05,3313.00,3601.04,350.48,345.18,7.41,0000 0000 0000 0000 000000
2015-06-15 05:41:20,0.00,0.02,0.00,23.81,27.52,30.11,4.76,23.07,1011.25,2036.99,3512.00,3313.00,3601.03,349.90,344.82,7.44,0000 0000 0000 0000 000000
2015-06-15 05:46:21,0.00,0.02,0.00,23.62,27.52,30.22,4.73,23.10,1011.25,2036.99,3512.00,3313.00,3601.01,350.30,345.47,7.47,0000 0000 0000 0000 000000
2015-06-15 05:51:22,-0.00,0.02,0.00,23.44,27.52,30.15,4.66,23.02,1011.25,2036.99,3512.00,3313.02,3601.20,349.86,344.97,7.50,0000 0000 0000 0000 000000
2015-06-15 05:56:23,-0.00,0.02,0.00,23.28,27.51,30.16,4.76,23.05,1011.26,2037.01,3512.00,3313.03,3601.44,350.07,345.54,7.53,0000 0000 0000 0000 000000
2015-06-15 06:01:25,-0.02,0.02,0.00,23.33,27.50,30.01,4.71,23.07,1011.25,2037.01,3512.00,3313.12,3601.61,349.76,345.36,7.56,0000 0000 0000 0000 000000
2015-06-15 06:06:26,-0.01,0.02,0.00,23.50,27.47,29.93,4.72,23.11,1011.25,2037.15,3512.07,3313.72,3601.97,349.99,345.12,7.58,0000 0000 0000 0000 000000
2015-06-15 06:11:27,0.01,0.02,0.00,23.65,27.47,30.00,4.77,23.13,1011.25,2037.20,3512.13,3313.81,3601.98,350.40,345.39,7.61,0000 0000 0000 0000 000000
2015-06-15 06:16:29,-0.00,0.02,0.00,23.82,27.46,29.98,4.73,23.19,1011.25,2037.25,3512.57,3313.91,3601.98,349.61,344.62,7.64,0000 0000 0000 0000 000000
2015-06-15 06:21:30,0.01,0.02,0.00,23.77,27.45,30.05,4.71,23.31,1011.24,2037.35,3512.43,3313.93,3601.99,349.81,344.86,7.67,0000 0000 0000 0000 000000
2015-06-15 06:26:31,0.02,0.02,0.00,23.64,27.45,30.06,4.68,23.21,1011.24,2037.48,3512.84,3313.97,3601.99,349.85,345.15,7.70,0000 0000 0000 0000 000000
2015-06-15 06:31:32,-0.05,0.02,0.00,23.67,27.45,30.03,4.70,23.13,1011.24,2037.31,3512.90,3313.96,3601.99,350.08,345.14,7.73,0000 0000 0000 0000 000000
2015-06-15 06:36:34,-0.01,0.02,0.00,23.67,27.45,30.00,4.75,23.17,1011.25,2037.18,3512.87,3313.95,3601.97,350.26,345.41,7.76,0000 0000 0000 0000 000000
2015-06-15 06:41:35,0.01,0.02,0.00,23.67,27.45,29.98,4.71,23.13,1011.25,2037.27,3512.68,3313.95,3601.98,350.09,345.31,7.79,0000 0000 0000 0000 000000
2015-06-15 06:46:36,0.01,0.02,0.00,23.65,27.44,29.97,4.62,23.08,1011.25,2037.38,3512.73,3313.97,3601.99,349.59,344.78,7.82,0000 0000 0000 0000 000000
2015-06-15 06:51:37,-0.02,0.02,0.00,23.65,27.42,29.97,4.75,23.11,1011.25,2037.27,3512.59,3313.98,3601.99,350.29,345.50,7.85,0000 0000 0000 0000 000000
2015-06-15 06:56:38,0.01,0.02,0.00,23.67,27.42,29.94,4.77,23.16,1011.25,2037.39,3512.72,3313.97,3601.99,350.10,345.00,7.88,0000 0000 0000 0000 000000
2015-06-15 07:01:39,0.00,0.02,0.00,23.70,27.42,29.95,4.73,23.21,1011.25,2037.32,3512.83,3313.98,3601.99,349.85,344.71,7.91,0000 0000 0000 0000 000000
2015-06-15 07:06:41,0.01,0.02,0.00,23.72,27.42,29.86,4.69,23.09,1011.25,2037.38,3512.73,3313.98,3601.98,349.98,345.00,7.94,0000 0000 0000 0000 000000
2015-06-15 07:11:42,0.04,0.02,0.00,23.72,27.40,29.88,4.75,23.02,1011.25,2037.56,3512.61,3313.98,3601.99,350.19,345.20,7.97,0000 0000 0000 0000 000000
2015-06-15 07:16:43,-0.00,0.02,0.00,23.74,27.40,29.87,4.68,23.06,1011.25,2037.61,3512.71,3313.99,3601.98,349.69,344.65,7.99,0000 0000 0000 0000 000000
2015-06-15 07:21:44,-0.03,0.02,0.00,23.75,27.40,29.83,4.71,23.18,1011.25,2037.32,3512.08,3313.91,3601.88,349.97,344.90,8.02,0000 0000 0000 0000 000000
2015-06-15 07:26:46,0.01,0.02,0.00,23.76,27.40,29.82,4.67,23.11,1011.25,2037.40,3512.04,3313.91,3601.88,349.67,344.69,8.05,0000 0000 0000 0000 000000
2015-06-15 07:31:47,0.05,0.02,0.00,23.79,27.40,29.80,4.85,23.10,1011.26,2037.69,3512.03,3313.95,3601.96,350.70,345.63,8.08,0000 0000 0000 0000 000000
2015-06-15 07:36:48,0.02,0.02,0.00,23.81,27.40,29.80,4.72,23.04,1011.26,2037.88,3512.05,3313.98,3601.97,349.76,344.67,8.11,0000 0000 0000 0000 000000
2015-06-15 07:41:49,-0.00,0.02,0.00,23.81,27.40,29.82,4.78,23.02,1011.27,2037.84,3512.02,3313.93,3601.96,349.97,344.97,8.14,0000 0000 0000 0000 000000
2015-06-15 07:46:51,0.02,0.02,0.00,23.81,27.40,29.79,4.70,22.99,1011.26,2037.93,3512.01,3313.94,3601.96,349.98,344.77,8.17,0000 0000 0000 0000 000000
2015-06-15 07:51:52,0.01,0.02,0.00,23.83,27.39,29.79,4.75,22.95,1011.25,2037.95,3512.00,3313.86,3601.88,350.24,345.08,8.20,0000 0000 0000 0000 000000
2015-06-15 07:56:53,0.07,0.03,0.00,23.85,27.40,29.79,4.70,23.01,1011.25,2037.92,3511.31,3313.08,3601.10,350.00,345.07,8.23,0000 0000 0000 0000 000000
2015-06-15 08:01:55,0.06,0.03,0.00,23.87,27.40,29.78,4.64,23.05,1011.25,2037.94,3510.37,3312.71,3600.72,349.80,344.65,8.26,0000 0000 0000 0000 000000
2015-06-15 08:06:56,0.04,0.03,0.00,23.89,27.40,29.79,4.71,23.04,1011.25,2037.96,3509.78,3312.07,3600.03,350.04,344.89,8.29,0000 0000 0000 0000 000000
2015-06-15 08:11:57,0.01,0.03,0.00,23.92,27.40,29.79,4.74,23.02,1011.25,2037.96,3509.07,3311.99,3599.97,350.33,345.16,8.32,0000 0000 0000 0000 000000
2015-06-15 08:16:58,0.01,0.03,0.00,23.92,27.40,29.79,4.71,22.99,1011.25,2037.96,3509.00,3311.98,3599.65,349.59,344.44,8.35,0000 0000 0000 0000 000000
2015-06-15 08:21:59,0.06,0.03,0.00,23.93,27.40,29.79,4.70,23.10,1011.25,2037.89,3508.35,3311.36,3599.03,350.12,344.78,8.38,0000 0000 0000 0000 000000
2015-06-15 08:27:00,0.01,0.03,0.00,23.94,27.40,29.80,4.77,23.02,1011.25,2037.94,3508.01,3311.04,3598.98,350.17,344.80,8.40,0000 0000 0000 0000 000000
2015-06-15 08:32:01,0.00,0.03,0.00,23.95,27.40,29.80,4.68,22.98,1011.25,2037.94,3508.00,3311.00,3598.90,350.08,344.62,8.43,0000 0000 0000 0000 000000
2015-06-15 08:37:03,0.01,0.03,0.00,23.95,27.41,29.80,4.64,23.02,1011.25,2037.96,3507.98,3311.00,3598.60,349.13,343.98,8.46,0000 0000 0000 0000 000000
2015-06-15 08:42:04,-0.01,0.03,0.00,23.97,27.42,29.81,4.74,22.98,1011.25,2037.85,3507.54,3310.98,3598.14,350.57,345.38,8.49,0000 0000 0000 0000 000000
2015-06-15 08:47:05,0.01,0.03,0.00,23.97,27.42,29.82,4.69,22.98,1011.25,2037.78,3507.14,3310.94,3598.01,349.48,344.19,8.52,0000 0000 0000 0000 000000
2015-06-15 08:52:06,-0.05,0.03,0.00,23.96,27.42,29.82,4.70,23.04,1011.25,2037.40,3507.02,3310.77,3598.00,349.81,344.52,8.55,0000 0000 0000 0000 000000
2015-06-15 08:57:08,-0.00,0.03,0.00,23.97,27.42,29.83,4.66,23.05,1011.25,2037.22,3507.01,3310.56,3598.00,349.97,344.82,8.58,0000 0000 0000 0000 000000
2015-06-15 09:02:09,0.01,0.03,0.00,23.96,27.42,29.83,4.73,23.01,1011.25,2037.20,3506.99,3310.25,3597.98,350.43,345.13,8.61,0000 0000 0000 0000 000000
2015-06-15 09:07:10,0.04,0.03,0.00,23.95,27.43,29.84,4.71,22.97,1011.25,2037.20,3506.72,3310.01,3597.93,350.22,345.12,8.64,0000 0000 0000 0000 000000
2015-06-15 09:12:11,0.01,0.03,0.00,23.95,27.44,29.85,4.68,23.01,1011.26,2037.38,3506.43,3310.01,3597.92,349.87,344.60,8.67,0000 0000 0000 0000 000000
2015-06-15 09:17:13,0.01,0.03,0.00,23.95,27.45,29.85,4.71,22.98,1011.27,2037.35,3506.21,3310.01,3597.68,349.80,344.64,8.70,0000 0000 0000 0000 000000
2015-06-15 09:22:14,-0.02,0.03,0.00,23.95,27.45,29.85,4.76,23.23,1011.26,2037.17,3505.98,3309.96,3597.07,350.03,344.64,8.73,0000 0000 0000 0000 000000
2015-06-15 09:27:15,0.02,0.03,0.00,23.95,27.45,29.87,4.68,23.19,1011.25,2037.15,3505.75,3309.82,3596.99,349.93,344.49,8.76,0000 0000 0000 0000 000000
2015-06-15 09:32:16,0.04,0.04,0.00,23.95,27.45,29.86,4.70,23.16,1011.26,2037.10,3505.16,3309.25,3596.70,349.97,344.60,8.79,0000 0000 0000 0000 000000
2015-06-15 09:37:18,0.00,0.04,0.00,23.95,27.45,29.85,4.69,23.13,1011.27,2037.15,3505.05,3309.11,3596.64,349.99,344.84,8.81,0000 0000 0000 0000 000000
2015-06-15 09:42:19,0.00,0.04,0.00,23.95,27.45,29.87,4.68,23.50,1011.26,2037.09,3505.03,3309.09,3596.43,349.83,344.60,8.84,0000 0000 0000 0000 000000
2015-06-15 09:47:20,-0.00,0.04,0.00,23.95,27.45,29.86,4.62,23.43,1011.29,2037.06,3505.01,3309.04,3596.29,349.57,344.42,8.87,0000 0000 0000 0000 000000
2015-06-15 09:52:21,0.00,0.04,0.00,23.94,27.45,29.87,4.73,23.40,1011.31,2037.06,3505.00,3309.07,3596.27,350.11,344.88,8.90,0000 0000 0000 0000 000000
2015-06-15 09:57:23,-0.00,0.04,0.00,23.94,27.45,29.87,4.67,23.32,1011.33,2037.07,3505.03,3309.08,3596.26,349.92,344.77,8.93,0000 0000 0000 0000 000000
2015-06-15 10:02:24,0.00,0.04,0.00,23.92,27.45,29.87,4.69,23.42,1011.28,2037.03,3505.05,3309.04,3596.09,350.19,344.83,8.96,0000 0000 0000 0000 000000
2015-06-15 10:07:25,0.00,0.04,0.00,23.92,27.45,29.88,4.70,23.37,1011.26,2037.00,3505.05,3309.02,3596.03,350.14,344.84,8.99,0000 0000 0000 0000 000000
2015-06-15 10:12:26,0.00,0.04,0.00,23.92,27.45,29.88,4.69,23.38,1011.26,2037.02,3505.03,3309.03,3596.05,350.07,344.74,9.02,0000 0000 0000 0000 000000
2015-06-15 10:17:27,0.00,0.04,0.00,23.92,27.46,29.88,4.68,23.40,1011.26,2037.01,3505.02,3309.02,3596.04,349.84,344.31,9.05,0000 0000 0000 0000 000000
2015-06-15 10:22:28,-0.00,0.04,0.00,23.92,27.46,29.88,4.70,23.57,1011.26,2037.00,3505.01,3309.00,3596.01,350.10,344.90,9.08,0000 0000 0000 0000 000000
2015-06-15 10:27:30,-0.00,0.04,0.00,23.92,27.46,29.89,4.70,23.36,1011.25,2037.00,3505.01,3309.00,3596.01,350.30,345.11,9.11,0000 0000 0000 0000 000000
2015-06-15 10:32:31,0.00,0.04,0.00,23.92,27.46,29.88,4.71,23.32,1011.25,2037.00,3505.00,3309.01,3596.00,349.84,344.61,9.14,0000 0000 0000 0000 000000
2015-06-15 10:37:32,0.00,0.04,0.00,23.91,27.47,29.89,4.66,23.32,1011.27,2037.00,3505.00,3309.01,3596.01,349.96,344.65,9.17,0000 0000 0000 0000 000000
2015-06-15 10:42:33,0.00,0.04,0.00,23.90,27.47,29.91,4.68,23.29,1011.26,2037.00,3505.01,3309.02,3596.01,349.57,344.31,9.20,0000 0000 0000 0000 000000
2015-06-15 10:47:34,0.00,0.04,0.00,23.90,27.47,29.90,4.68,23.28,1011.25,2037.00,3505.04,3309.02,3596.01,349.72,344.53,9.22,0000 0000 0000 0000 000000
2015-06-15 10:52:35,0.00,0.04,0.00,23.90,27.47,29.90,4.77,23.27,1011.25,2037.00,3505.02,3309.01,3596.00,350.40,345.10,9.25,0000 0000 0000 0000 000000
2015-06-15 10:57:36,0.00,0.04,0.00,23.88,27.47,29.90,4.69,23.21,1011.26,2037.00,3505.01,3309.00,3596.00,349.95,344.68,9.28,0000 0000 0000 0000 000000
2015-06-15 11:02:38,0.00,0.04,0.00,23.87,27.47,29.89,4.65,23.31,1011.25,2037.00,3505.01,3309.01,3596.00,349.64,344.46,9.31,0000 0000 0000 0000 000000
2015-06-15 11:07:39,-0.00,0.04,0.00,23.87,27.47,29.91,4.74,23.35,1011.25,2036.99,3505.01,3309.00,3596.00,350.08,344.82,9.34,0000 0000 0000 0000 000000
2015-06-15 11:12:40,0.00,0.04,0.00,23.85,27.47,29.92,4.66,23.35,1011.25,2036.98,3505.01,3309.00,3595.99,349.91,344.84,9.37,0000 0000 0000 0000 000000
2015-06-15 11:17:41,0.00,0.04,0.00,23.85,27.47,29.92,4.79,23.25,1011.25,2036.98,3505.01,3309.00,3595.99,350.18,345.11,9.40,0000 0000 0000 0000 000000
2015-06-15 11:22:43,0.00,0.04,0.00,23.84,27.47,29.92,4.71,23.34,1011.26,2036.98,3505.00,3309.00,3595.98,350.12,345.16,9.43,0000 0000 0000 0000 000000
2015-06-15 11:27:43,-0.00,0.04,0.00,23.84,27.47,29.91,4.71,23.18,1011.25,2036.98,3505.00,3309.00,3595.98,349.89,344.78,9.46,0000 0000 0000 0000 000000
2015-06-15 11:32:45,-0.00,0.04,0.00,23.83,27.47,29.92,4.68,23.12,1011.25,2036.97,3505.00,3309.00,3595.99,349.67,344.48,9.49,0000 0000 0000 0000 000000
2015-06-15 11:37:46,0.00,0.04,0.00,23.82,27.47,29.92,4.75,23.20,1011.24,2036.96,3505.00,3308.99,3595.98,350.36,345.17,9.52,0000 0000 0000 0000 000000
2015-06-15 11:42:47,0.00,0.04,0.00,23.82,27.47,29.91,4.72,23.17,1011.23,2036.97,3505.00,3308.99,3595.99,350.06,344.95,9.55,0000 0000 0000 0000 000000
2015-06-15 11:47:48,-0.00,0.04,0.00,23.80,27.47,29.93,4.76,23.18,1011.24,2036.98,3505.00,3308.99,3595.99,350.19,345.11,9.58,0000 0000 0000 0000 000000
2015-06-15 11:52:49,0.00,0.04,0.00,23.79,27.47,29.94,4.72,23.13,1011.22,2036.98,3505.00,3308.99,3595.99,349.34,344.33,9.60,0000 0000 0000 0000 000000
2015-06-15 11:57:51,0.00,0.04,0.00,23.77,27.47,29.93,4.68,23.12,1011.12,2036.99,3505.00,3309.00,3595.99,349.92,344.84,9.63,0000 0000 0000 0000 000000
2015-06-15 12:02:52,0.00,0.04,0.00,23.77,27.47,29.93,4.69,23.15,1010.92,2036.99,3504.99,3309.00,3595.99,349.88,344.67,9.66,0000 0000 0000 0000 000000
2015-06-15 12:07:53,-0.00,0.04,0.00,23.76,27.47,29.95,4.74,23.21,1010.78,2036.98,3504.99,3309.00,3595.99,350.17,344.76,9.69,0000 0000 0000 0000 000000
2015-06-15 12:12:54,0.00,0.04,0.00,23.73,27.47,29.94,4.66,23.10,1010.77,2036.99,3504.99,3309.00,3595.99,349.94,344.75,9.72,0000 0000 0000 0000 000000
2015-06-15 12:17:55,0.00,0.04,0.00,23.71,27.47,29.94,4.78,23.15,1010.76,2036.99,3504.99,3309.00,3595.99,349.72,344.54,9.75,0000 0000 0000 0000 000000
2015-06-15 12:22:57,-0.00,0.04,0.00,23.68,27.45,29.95,4.75,23.29,1010.76,2036.99,3504.99,3309.00,3595.99,350.20,344.93,9.78,0000 0000 0000 0000 000000
2015-06-15 12:27:58,-0.00,0.04,0.00,23.67,27.45,29.96,4.65,23.24,1010.76,2036.99,3505.00,3309.01,3595.99,349.80,344.73,9.81,0000 0000 0000 0000 000000
2015-06-15 12:32:59,0.00,0.04,0.00,23.66,27.45,29.97,4.64,23.13,1010.76,2036.99,3505.00,3309.02,3595.99,349.83,344.76,9.84,0000 0000 0000 0000 000000
2015-06-15 12:38:01,0.00,0.04,0.00,23.63,27.45,29.97,4.73,23.16,1010.73,2036.99,3505.00,3309.03,3596.00,350.06,344.93,9.87,0000 0000 0000 0000 000000
2015-06-15 12:43:02,0.00,0.04,0.00,23.61,27.44,29.99,4.81,23.17,1010.70,2036.99,3505.00,3309.03,3596.01,350.45,345.47,9.90,0000 0000 0000 0000 000000
2015-06-15 12:48:03,0.00,0.04,0.00,23.58,27.42,29.98,4.72,23.17,1010.59,2036.99,3505.00,3309.03,3596.00,350.55,345.41,9.93,0000 0000 0000 0000 000000
2015-06-15 12:53:04,0.00,0.04,0.00,23.56,27.42,29.97,4.67,23.23,1010.42,2037.00,3505.00,3309.07,3596.02,349.81,344.59,9.96,0000 0000 0000 0000 000000
2015-06-15 12:58:06,-0.00,0.04,0.00,23.54,27.42,29.99,4.68,23.26,1010.35,2037.00,3505.00,3309.12,3596.04,350.05,344.96,9.99,0000 0000 0000 0000 000000
2015-06-15 13:03:07,-0.00,0.04,0.00,23.52,27.41,29.95,4.76,23.23,1010.29,2037.01,3505.00,3309.30,3596.10,350.24,345.17,10.01,0000 0000 0000 0000 000000
2015-06-15 13:08:09,0.01,0.04,0.00,23.51,27.40,29.95,4.72,23.20,1010.29,2037.03,3505.00,3309.34,3596.10,350.18,345.06,10.04,0000 0000 0000 0000 000000